Eglin Air Force Base, FL

11:24 PM CDT on September 26, 2016 (GMT -0500)
Eglin Air Force Base

Weather History for KVPS - October, 2012

Change the Weather History Date:

Saturday, October 6, 2012

  Actual Average Record
Temperature  
Mean Temperature 78 °F -  
Max Temperature 88 °F 84 °F 92 °F (1951)
Min Temperature 68 °F 56 °F 37 °F (1987)
Cooling Degree Days 12    
Growing Degree Days 28 (Base 50)    
Moisture  
Dew Point 69 °F    
Average Humidity 81    
Maximum Humidity 100    
Minimum Humidity 44    
Precipitation  
Precipitation 0.00 in - - ()
Sea Level Pressure  
Sea Level Pressure 29.98 in    
Wind  
Wind Speed 4 mph (NNW)    
Max Wind Speed 10 mph    
Max Gust Speed -    
Visibility 8 miles    
Events      
Averages and records for this station are not official NWS values.
T = Trace of Precipitation, MM = Missing Value Source: NWS Daily Summary

Daily Weather History Graph

Daily Weather History Graph

Search for Another Location

Airport or City:

Trip Planner

Search our weather history database for the weather conditions in past years. The results will help you decide how hot, cold, wet, or windy it might be!

Date:

Astronomy

Oct. 06, 2012 Rise Set
Actual Time 6:42 AM CDT 6:24 PM CDT
Civil Twilight 6:18 AM CDT 6:48 PM CDT
Nautical Twilight 5:50 AM CDT 7:16 PM CDT
Astronomical Twilight 5:23 AM CDT 7:44 PM CDT
Moon 10:57 PM CDT (10/6) 12:18 PM CDT (10/6)
Length of Visible Light 12h 29m
Length of Day
11h 41m
Waning Gibbous, 65% of the Moon is Illuminated
Oct 6
Waning Gibbous
Oct 8
Last Quarter
Oct 15
New
Oct 21
First Quarter
Oct 29
Full

Hourly Weather History & Observations

Time (CDT) Temp. Heat Index Dew Point Humidity Pressure Visibility Wind Dir Wind Speed Gust Speed Precip Events Conditions
12:55 AM 71.4 °F - 69.6 °F 94% 30.02 in 10.0 mi NNW 2.3 mph - N/A   Scattered Clouds
1:55 AM 70.5 °F - 68.9 °F 95% 30.01 in 9.0 mi North 2.3 mph - N/A   Scattered Clouds
2:55 AM 70.9 °F - 69.4 °F 95% 29.99 in 8.0 mi NNW 2.3 mph - N/A   Mostly Cloudy
3:55 AM 69.6 °F - 68.5 °F 96% 29.98 in 8.0 mi Calm Calm - N/A   Partly Cloudy
4:55 AM 69.3 °F - 68.4 °F 97% 29.98 in 7.0 mi NNE 1.2 mph - N/A   Clear
5:55 AM 68.7 °F - 67.6 °F 96% 30.00 in 7.0 mi NNW 2.3 mph - N/A   Partly Cloudy
6:32 AM 69.8 °F - 68.0 °F 94% 30.00 in 3.0 mi NNW 2.3 mph - N/A   Scattered Clouds
6:43 AM 69.8 °F - 68.0 °F 94% 30.00 in 2.0 mi NNW 4.6 mph - N/A   Scattered Clouds
6:55 AM 69.1 °F - 68.2 °F 97% 30.00 in 2.0 mi NNW 3.5 mph - N/A   Scattered Clouds
7:32 AM 69.8 °F - 69.8 °F 100% 30.00 in 3.0 mi North 4.6 mph - N/A   Partly Cloudy
7:55 AM 72.3 °F - 69.6 °F 91% 30.01 in 5.0 mi North 4.6 mph - N/A   Partly Cloudy
8:48 AM 75.2 °F - 69.8 °F 83% 30.01 in 10.0 mi North 8.1 mph - N/A   Partly Cloudy
8:55 AM 75.7 °F - 70.9 °F 85% 30.02 in 10.0 mi North 8.1 mph - N/A   Partly Cloudy
9:55 AM 79.5 °F - 70.5 °F 74% 30.02 in 10.0 mi NNE 8.1 mph - N/A   Partly Cloudy
10:55 AM 84.2 °F 88.4 °F 69.8 °F 62% 30.02 in 10.0 mi NNE 9.2 mph - N/A   Partly Cloudy
11:55 AM 84.9 °F 87.9 °F 67.5 °F 56% 30.01 in 10.0 mi North 8.1 mph - N/A   Partly Cloudy
12:55 PM 87.1 °F 88.3 °F 64.0 °F 46% 29.98 in 10.0 mi North 4.6 mph - N/A   Scattered Clouds
1:55 PM 87.3 °F 88.0 °F 63.0 °F 44% 29.94 in 10.0 mi North 5.8 mph - N/A   Partly Cloudy
2:55 PM 85.1 °F 89.4 °F 69.6 °F 60% 29.92 in 10.0 mi South 8.1 mph - N/A   Partly Cloudy
3:55 PM 83.3 °F 88.4 °F 71.6 °F 68% 29.91 in 10.0 mi SSW 10.4 mph - N/A   Partly Cloudy
4:55 PM 82.9 °F 87.2 °F 70.7 °F 66% 29.91 in 10.0 mi SW 8.1 mph - N/A   Partly Cloudy
5:55 PM 81.5 °F 84.6 °F 68.9 °F 65% 29.92 in 10.0 mi WSW 5.8 mph - N/A   Partly Cloudy
6:55 PM 77.9 °F - 70.3 °F 77% 29.94 in 10.0 mi West 2.3 mph - N/A   Partly Cloudy
7:59 PM 76.6 °F - 70.5 °F 81% 29.96 in 10.0 mi West 3.5 mph - N/A   Partly Cloudy
8:55 PM 74.7 °F - 70.5 °F 87% 29.97 in 10.0 mi WNW 3.5 mph - N/A   Partly Cloudy
9:55 PM 73.0 °F - 70.2 °F 91% 29.98 in 10.0 mi NW 2.3 mph - N/A   Partly Cloudy
10:55 PM 72.1 °F - 66.7 °F 83% 29.99 in 10.0 mi North 5.8 mph - N/A   Partly Cloudy
11:20 PM 71.6 °F - 66.2 °F 83% 29.98 in 10.0 mi North 5.8 mph - N/A   Clear
11:55 PM 70.3 °F - 65.3 °F 84% 29.99 in 10.0 mi North 6.9 mph - N/A   Clear